| Date | Time | Temp. (oF) | Dew Point (oF) | Rel. Hum. (%) | Press. (in.) | Wind Dir. | Wind Speed (mph) | Hourly Rainfall (in.) |
|
|---|---|---|---|---|---|---|---|---|---|
| 1 | 10/30 | 00:00 | 53 | 51 | 93 | 30.26 | S | 5 | 0.00 |
| 2 | 10/29 | 23:00 | 54 | 52 | 93 | 30.27 | SSE | 0 | 0.00 |
| 3 | 10/29 | 22:00 | 54 | 51 | 92 | 30.27 | S | 0 | 0.00 |
| 4 | 10/29 | 21:00 | 54 | 51 | 92 | 30.27 | S | 0 | 0.00 |
| 5 | 10/29 | 20:00 | 54 | 51 | 91 | 30.27 | SSW | 0 | 0.00 |
| 6 | 10/29 | 19:00 | 55 | 51 | 88 | 30.26 | ESE | 0 | 0.00 |
| 7 | 10/29 | 18:00 | 56 | 51 | 86 | 30.25 | SE | 0 | 0.00 |
| 8 | 10/29 | 17:00 | 57 | 52 | 85 | 30.25 | SSE | 0 | 0.00 |
| 9 | 10/29 | 16:00 | 57 | 51 | 83 | 30.24 | SSE | 0 | 0.00 |
| 10 | 10/29 | 15:00 | 56 | 50 | 83 | 30.23 | SE | 0 | 0.00 |
| 11 | 10/29 | 14:00 | 57 | 51 | 83 | 30.24 | SSE | 0 | 0.00 |
| 12 | 10/29 | 13:00 | 56 | 51 | 85 | 30.26 | ESE | 0 | 0.00 |
| 13 | 10/29 | 12:00 | 55 | 51 | 87 | 30.28 | SE | 0 | 0.00 |
| 14 | 10/29 | 11:00 | 55 | 51 | 88 | 30.27 | ESE | 0 | 0.00 |
| 15 | 10/29 | 10:00 | 53 | 50 | 92 | 30.26 | NE | 2 | 0.00 |
| 16 | 10/29 | 09:00 | 53 | 51 | 93 | 30.26 | SE | 0 | 0.00 |
| 17 | 10/29 | 08:00 | 52 | 49 | 92 | 30.23 | ENE | 0 | 0.00 |
| 18 | 10/29 | 07:00 | 53 | 50 | 91 | 30.20 | ENE | 2 | 0.00 |
| 19 | 10/29 | 06:00 | 53 | 50 | 91 | 30.17 | E | 3 | 0.00 |
| 20 | 10/29 | 05:00 | 54 | 51 | 91 | 30.14 | NE | 5 | 0.00 |
| 21 | 10/29 | 04:00 | 55 | 52 | 91 | 30.12 | ENE | 0 | 0.00 |
| 22 | 10/29 | 03:00 | 56 | 54 | 96 | 30.10 | ENE | 2 | 0.00 |
| 23 | 10/29 | 02:00 | 56 | 54 | 96 | 30.08 | SE | 0 | 0.00 |
| 24 | 10/29 | 01:00 | 56 | 54 | 96 | 30.07 | NE | 0 | 0.00 |